Preview of NWS' New Version of Forecast
This preview is not operational and should not be used for support decisions.

Regional Weather Roundup (RWR)

Issued by National Weather Service (NWS)

                            
000
ASUS43 KTOP 191059
RWRKS 

WEATHER ROUNDUP FOR KANSAS
NATIONAL WEATHER SERVICE GOODLAND KS
600 AM CDT FRI APR 19 2019

NOTE:  "FAIR" INDICATES FEW OR NO CLOUDS BELOW 12,000 FEET WITH NO
SIGNIFICANT WEATHER AND/OR OBSTRUCTIONS TO VISIBILITY.

KSZ001>006-013>018-027>032-041>047-191200-
NORTHWEST KANSAS
  
CITY           SKY/WX    TMP DP  RH WIND       PRES   REMARKS
GOODLAND       CLEAR     31  26  82 W9        30.18S                  
HAYS           CLEAR     36  32  85 NW9       30.14S                  
HILL CITY      CLEAR     36  31  82 NW8       30.16R                  
RUSSELL        CLEAR     33  30  88 NW8       30.11S                  
$$

KSZ061>065-074>080-084>089-191200-
SOUTHWEST KANSAS
  
CITY           SKY/WX    TMP DP  RH WIND       PRES   REMARKS
DODGE CITY     CLEAR     35  29  78 NW12      30.15R WCI  27          
GARDEN CITY    CLEAR     36  30  79 NW14      30.17S WCI  27          
GREAT BEND       N/A     33  31  92 W9        30.13R                  
LIBERAL        CLEAR     35  30  82 NW10      30.20R WCI  27          
$$

KSZ066>073-081>083-090>101-191200-
SOUTHEAST KANSAS
  
CITY           SKY/WX    TMP DP  RH WIND       PRES   REMARKS
CHANUTE        CLEAR     47  39  74 N10       29.99R                  
COFFEYVILLE    CLEAR     47  41  80 N13       29.97R                  
HUTCHINSON     CLEAR     39  34  82 NW12      30.09R WCI  32          
MEDICINE LODGE   N/A     38  34  85 N8        30.10S                  
NEWTON         CLEAR     40  36  86 NW13      30.07R WCI  32          
PARSONS          N/A     46  40  79 N9        29.99R                  
WICHITA INTL   CLEAR     44  36  73 N13       30.06R                  
WICHITA JABRA  CLEAR     42  36  79 NW15      30.05R                  
WICHITA MCCONL CLEAR     44  37  75 N13       30.05R                  
WINFIELD       CLEAR     43  38  82 N13       30.05R                  
$$

KSZ007>012-019>026-033>040-048>060-102>105-191200-
NORTHEAST KANSAS
  
CITY           SKY/WX    TMP DP  RH WIND       PRES   REMARKS
CONCORDIA        N/A    N/A N/A N/A MISG      30.10R                  
EMPORIA        CLEAR     43  38  82 NW9       30.02R                  
LAWRENCE       CLEAR     42  37  82 NW10      30.01R                  
MANHATTAN      CLEAR     42  35  76 VRB5      30.06R                  
OLATHE IND     CLEAR     42  39  89 NW12      29.99R                  
OLATHE EXE     CLEAR     43  38  82 NW9       29.98R                  
SALINA         CLEAR     38  34  85 N7        30.10R                  
TOPEKA BILLARD CLEAR     43  37  79 NW9       30.02R                  
TOPEKA FORBES  CLEAR     44  37  76 NW10      30.01R                  
$$